Showing default

UMBRA-07, 58297

Orbit data source: Space-Track

UMBRA-07, 58297 is a payload satellite owned by Umbra Labs (US) in SSO that was launched on Sat, 11 Nov 2023 UTC via an FALCON 9 launch vehicle from the Air Force Western Test Range (AFWTR). Payload-class satellites include a variety of spacecraft equipped with specific instruments for various scientific and technological missions. These include communications satellites like Starlink; space stations such as the ISS; scientific satellites like the Hubble; Earth observation satellites from companies like Planet Labs, Umbra, and HawkEye 360; GPS; miniature CubeSats for education and research; and military/defense satellites.

Loading next visibility...
Identifier
58297, 2023-174AT
Orbit
SSO
Country
Flag of USUS
Related business
Manufacturer
Umbra Labs
Mission
Operational Commercial Radar Imaging
Bus & Motor
ESPASAT?, Unknown motor
Mass
84 kg wet, 79 kg dry
Launch date (UTC)
2023-11-11 (2 years ago)
Launch vehicle
FALCON 9
Launch site
Air Force Western Test Range (AFWTR)
Object type
Payload
Rocket body
Debris
Shape & HBR
Box + 2 Pan + 1 Dish, 2.0 m
Radar Cross Section
6.513 m², Large (>1 m²)

Expand to show TLE details & history
Last TLE update: 19 hours ago

TLE from 19 hours ago
0 UMBRA-07
1 58297U 23174AT  25347.67849292  .00012870  00000-0  91106-3 0  9994
2 58297  97.4064  45.7365 0003514  16.1784 343.9555 15.04953970115478
Epoch: 2025-12-13T16:17Z
TLE epoch observation values (Epoch: 2025-12-13T16:17:01.788Z)
Latitude
0.00004°
Longitude
78.87673°
Altitude
552.376 km
Speed
7.587 km/s
True Right ascension
03h 02m 56s
True Declination
0° 00' 00"
Sunlit
Object was in full shadow at epoch
Visualization orbit readout
Latitude
Unknown
Longitude
Unknown
Altitude
Unknown
Speed
Unknown
Apparent Right ascension
Unknown
Apparent Declination
Unknown
Sunlit
N/A
Visualization observer readout
Local Sidereal Time
10:09:12
Azimuth
Unknown
Elevation
Unknown
Doppler factor
Unknown
Orbital elements
Apogee altitude
551.067 km
Perigee altitude
546.199 km
Semi-major axis
6,926.77 km
Eccentricity
0.00035
Inclination
97.4064°
RAAN
45.7365°
Arg. of periapsis
16.1784°
True anomaly
343.94437°
Mean anomaly
343.9555°
Eccentric anomaly
343.94993°
Mean motion
3.76484 °/min
Orbital period
95.62 mins
BSTAR
0.00091106
Loading maneuver chart data...
Computing Atmospheric mass density...
Loading historical data...
Loading historical data...
Loading historical data...
Loading historical data...
Loading historical data...
Loading historical data...
Loading historical data...

Documentation

Showing up to 5 results
|